Weather History for Malaga, Spain

Change the Weather History Date:

Friday, March 1, 2013

  Actual Average Record
Temperature  
Mean Temperature 52 °F -  
Max Temperature 60 °F 65 °F 73 °F (2007)
Min Temperature 45 °F 48 °F 42 °F (2001)
Degree Days  
Heating Degree Days 12    
Growing Degree Days 2 (Base 50)    
Moisture  
Dew Point 37 °F    
Average Humidity 58    
Maximum Humidity 76    
Minimum Humidity 27    
Precipitation  
Precipitation 0.00 in 0.08 in - ()
Sea Level Pressure  
Sea Level Pressure 29.96 in    
Wind  
Wind Speed 10 mph ()    
Max Wind Speed 16 mph    
Max Gust Speed 29 mph    
Visibility 6.5 miles    
Events      
Averages and records for this station are not official NWS values.
T = Trace of Precipitation, MM = Missing Value Source: Averaged Metar Reports

Daily Weather History Graph

Daily Weather History Graph

Search for Another Location

Airport:

Trip Planner

Search our weather history database for the weather conditions in past years. The results will help you decide how hot, cold, wet, or windy it might be!

Date:

Astronomy

Mar. 01, 2013 Rise Set
Actual Time 7:48 AM CET 7:12 PM CET
Civil Twilight 7:22 AM CET 7:38 PM CET
Nautical Twilight 6:52 AM CET 8:08 PM CET
Astronomical Twilight 6:22 AM CET 8:38 PM CET
Moon 11:21 PM CET (3/1) 9:33 AM CET (3/1)
Length of Visible Light 12h 15m
Length of Day
11h 23m
Waning Gibbous, 85% of the Moon is Illuminated
Mar 1
Waning Gibbous
Mar 4
Last Quarter
Mar 11
New
Mar 19
First Quarter
Mar 27
Full

Hourly Weather History & Observations

Time (CET) Temp. Windchill Dew Point Humidity Pressure Visibility Wind Dir Wind Speed Gust Speed Precip Events Conditions
12:00 AM 46.4 °F 41.1 °F 37.4 °F 71% 29.89 in 6.2 mi WNW 11.5 mph - N/A   Mostly Cloudy
12:30 AM 48.2 °F - 37.4 °F 66% 29.89 in 6.2 mi WNW 10.4 mph - N/A   Mostly Cloudy
1:00 AM 49 °F - 38 °F 55% 29.93 in 12 mi WNW 8.1 mph - -   Mostly Cloudy
1:00 AM 48.2 °F - 37.4 °F 66% 29.92 in 6.2 mi WNW 8.1 mph - N/A   Mostly Cloudy
1:30 AM 48.2 °F - 37.4 °F 66% 29.89 in 6.2 mi West 11.5 mph - N/A   Scattered Clouds
2:00 AM 46.4 °F 40.7 °F 37.4 °F 71% 29.92 in 6.2 mi WNW 12.7 mph - N/A   Scattered Clouds
2:30 AM 46.4 °F 41.1 °F 37.4 °F 71% 29.89 in 6.2 mi WNW 11.5 mph - N/A   Scattered Clouds
3:00 AM 46.4 °F 40.7 °F 37.4 °F 71% 29.89 in 6.2 mi WNW 12.7 mph - N/A   Scattered Clouds
3:30 AM 46.4 °F 41.1 °F 37.4 °F 71% 29.89 in 6.2 mi WNW 11.5 mph - N/A   Scattered Clouds
4:00 AM 46.4 °F 42.9 °F 37.4 °F 71% 29.89 in 6.2 mi WNW 6.9 mph - N/A   Scattered Clouds
4:30 AM 44.6 °F 40.7 °F 37.4 °F 76% 29.89 in 6.2 mi WNW 6.9 mph - N/A   Scattered Clouds
5:30 AM 46.4 °F 42.4 °F 37.4 °F 71% 29.92 in 6.2 mi WNW 8.1 mph - N/A   Partly Cloudy
6:00 AM 46.4 °F 42.4 °F 37.4 °F 71% 29.92 in 6.2 mi West 8.1 mph - N/A   Partly Cloudy
6:30 AM 46.4 °F 42.9 °F 35.6 °F 66% 29.92 in 6.2 mi West 6.9 mph - N/A   Partly Cloudy
7:00 AM 47 °F - 37 °F 58% 29.94 in 16 mi West 3.5 mph - -   Scattered Clouds
7:00 AM 46.4 °F 45.2 °F 35.6 °F 66% 29.92 in 6.2 mi WNW 3.5 mph - N/A   Partly Cloudy
7:30 AM 46.4 °F 41.9 °F 37.4 °F 71% 29.92 in 6.2 mi NW 9.2 mph - N/A   Partly Cloudy
8:00 AM 46.4 °F 42.4 °F 37.4 °F 71% 29.92 in 6.2 mi WNW 8.1 mph - N/A   Partly Cloudy
8:30 AM 46.4 °F 41.5 °F 37.4 °F 71% 29.95 in 6.2 mi WNW 10.4 mph - N/A   Partly Cloudy
9:00 AM 48.2 °F - 37.4 °F 66% 29.98 in 6.2 mi NW 6.9 mph - N/A   Partly Cloudy
9:30 AM 48.2 °F - 37.4 °F 66% 29.98 in 6.2 mi WNW 15.0 mph - N/A   Partly Cloudy
10:00 AM 50.0 °F - 39.2 °F 66% 29.98 in 6.2 mi NW 15.0 mph 26.5 mph N/A   Partly Cloudy
11:30 AM 53.6 °F - 37.4 °F 54% 29.98 in 6.2 mi WNW 15.0 mph - N/A   Partly Cloudy
12:00 PM 55.4 °F - 37.4 °F 51% 29.98 in 6.2 mi WNW 16.1 mph - N/A   Partly Cloudy
12:30 PM 57.2 °F - 35.6 °F 44% 30.01 in 6.2 mi NW 16.1 mph 28.8 mph N/A   Partly Cloudy
1:00 PM 57 °F - 33 °F 27% 30.01 in 25 mi NW 12.7 mph - -   Scattered Clouds
1:00 PM 57.2 °F - 37.4 °F 48% 29.98 in 6.2 mi NW 12.7 mph - N/A   Partly Cloudy
1:30 PM 59.0 °F - 37.4 °F 45% 29.98 in 6.2 mi NW 13.8 mph 25.3 mph N/A   Partly Cloudy
2:00 PM 59.0 °F - 35.6 °F 42% 29.98 in 6.2 mi NW 13.8 mph 25.3 mph N/A   Partly Cloudy
2:30 PM 59.0 °F - 33.8 °F 39% 29.98 in 6.2 mi NW 13.8 mph 25.3 mph N/A   Scattered Clouds
3:00 PM 59.0 °F - 37.4 °F 45% 29.95 in 6.2 mi NW 12.7 mph 24.2 mph N/A   Scattered Clouds
3:30 PM 59.0 °F - 37.4 °F 45% 29.98 in 6.2 mi NW 13.8 mph 25.3 mph N/A   Scattered Clouds
4:00 PM 60.8 °F - 35.6 °F 39% 29.98 in 6.2 mi NW 13.8 mph - N/A   Scattered Clouds
4:30 PM 60.8 °F - 37.4 °F 42% 29.98 in 6.2 mi NW 11.5 mph - N/A   Scattered Clouds
5:00 PM 59.0 °F - 35.6 °F 42% 29.98 in 6.2 mi WNW 13.8 mph - N/A   Scattered Clouds
5:30 PM 57.2 °F - 35.6 °F 44% 29.98 in 6.2 mi WNW 9.2 mph - N/A   Scattered Clouds
6:00 PM 57.2 °F - 35.6 °F 44% 29.98 in 6.2 mi NW 9.2 mph - N/A   Scattered Clouds
6:30 PM 57.2 °F - 37.4 °F 48% 29.98 in 6.2 mi NW 11.5 mph - N/A   Scattered Clouds
7:00 PM 58 °F - 35 °F 30% 29.99 in 25 mi WNW 9.2 mph - -   Partly Cloudy
7:00 PM 55.4 °F - 39.2 °F 54% 29.98 in 6.2 mi WNW 9.2 mph - N/A   Scattered Clouds
7:30 PM 51.8 °F - 39.2 °F 62% 30.01 in 6.2 mi WNW 6.9 mph - N/A   Partly Cloudy
8:30 PM 50.0 °F - 39.2 °F 66% 30.01 in 6.2 mi WNW 8.1 mph - N/A   Partly Cloudy
9:00 PM 50.0 °F - 39.2 °F 66% 30.01 in 6.2 mi WNW 11.5 mph - N/A   Partly Cloudy
9:30 PM 50.0 °F - 39.2 °F 66% 30.04 in 6.2 mi WNW 13.8 mph - N/A   Partly Cloudy
10:00 PM 51.8 °F - 39.2 °F 62% 30.04 in 6.2 mi WNW 15.0 mph - N/A   Partly Cloudy
10:30 PM 50.0 °F - 37.4 °F 62% 30.04 in 6.2 mi West 13.8 mph - N/A   Partly Cloudy
11:00 PM 51.8 °F - 37.4 °F 58% 30.04 in 6.2 mi West 13.8 mph - N/A   Partly Cloudy
11:30 PM 51.8 °F - 37.4 °F 58% 30.04 in 6.2 mi West 11.5 mph - N/A   Partly Cloudy